Погода Первомайское

Погода Первомайское : погода сейчас, прогноз погоды и архив. Всё, что Вы хотите узнать о погоде Первомайское!

Хотите узнать прогноз погоды Первомайское? Тогда Вам сюда: Погода Первомайское

Поиск расширенной информации на нашем сайте:

Другие новости

Новости СМИ2

Главная страница сайта

Новости сайта

03.07.2017

Напоминаем, что на нашем специализированном сайте Метеоцентр.Азия вы можете получить высокодетализированные автоматические прогнозы погоды по пунктам России, СНГ и мира в авиационном формате (включающие направление и скорость ветра, видимость, явления погоды, количество и форму облачности, нижнюю и верхнюю границу облачности).

Рекомендуем: Грунтовка для дерева pinotex base пинотекс бейс.

Погода Первомайское - сегодня

Время (UTC), дата Ветер
(°,м/с) 
Видим.   Явления Облачность Т
(°С)
Тd
(°С)
f(%) Тe
(°С)
Pmin
(гПа)
dP
(гПа)
Po
(мм)
O2
(г/м3)
Тmin Tmax R s Состояние
почвы
21 18.02.18 190 (Ю) 4000 м  слаб. ливневой снег  10/5 600 м кучево-дожд., средняя 
[Cb cap|Ac As]
-15.1 -18 78 -17  1032.4  -0.4  763  327           
00 19.02.18 170 (Ю) 4000 м  слаб. ливневой снег  3/3 600 м кучево-дожд. 
[Cb cap]
-17 -19.1 84 -19  1032.4  -0.2  762  329  -17    0.6  45  неравномерный
сухой снег
100% 
06 19.02.18 190 (Ю) 4000 м  слаб. ливневой снег  10/6 600 м кучево-дожд., средняя 
[Cb cap|Ac As]
-13.9 -17.6 74 -18  1032.5  763  325           
09 19.02.18 190 (Ю) 4000 м  слаб. ливневой снег  9/6 600 м кучево-дожд., средняя 
[Cb cap|Ac trans]
-12 -15.5 75 -16  1032  -0.4  762  323           
12 19.02.18 200 (Ю) 4000 м  слаб. ливневой снег  9/4 600 м кучево-дожд., верхняя 
[Cb cap|Cs]
-12.5 -15.3 80 -16  1032.5  0.5  763  323    -11.7  0.6     
15 19.02.18 190 (Ю) 4000 м  слаб. ливневой снег  10/6 600 м кучево-дожд., средняя 
[Cb cap|Ac As]
-12.8 -15.7 79 -16  1032.4  0.1  763  324           
18 19.02.18 200 (Ю) 4000 м  слаб. ливневой снег  10/8 600 м кучево-дожд., средняя 
[Cb cap|Ac As]
-11.7 -14.5 80 -17  1031.6  -0.8  762  322           
21 19.02.18 200 (Ю) 4000 м  слаб. ливневой снег  10/8 600 м кучево-дожд., средняя 
[Cb cap|Ac As]
-11.9 -14.5 81 -16  1030.9  -0.7  762  322           
00 20.02.18 200 (Ю) 4000 м  слаб. ливневой снег  10/8 600 м кучево-дожд., средняя 
[Cb cap|Ac As]
-11.5 -13.9 82 -15  1031.2  0.4  762  322  -13.1    47  неравномерный
сухой снег
100% 
03 20.02.18 210 (ЮЗ) 4000 м  слаб. ливневой снег  9/3 600 м кучево-дожд., верхняя 
[Cb cap|Cs]
-11.5 -14.1 81 -15  1031.5  0.3  762  322           
06 20.02.18 210 (ЮЗ) 4000 м  слаб. ливневой снег  10/5 300 м кучево-дожд., верхняя 
[Cb cap|Cs]
-9.9 -13.3 76 -13  1031.2  -0.2  762  320           
09 20.02.18 200 (Ю) 4000 м  слаб. ливневой снег  10/5 300 м кучево-дожд., верхняя 
[Cb cap|Cs]
-8.4 -11.7 77 -11  1030.8  -0.3  762  318           
12 20.02.18 200 (Ю) 4000 м  слаб. ливневой снег  10/6 300 м кучево-дожд., верхняя 
[Cb cap|Cs]
-8.6 -10.9 83 -11  1030.6  -0.2  762  318    -7.8  0.7     
15 20.02.18 200 (Ю) 4000 м  слаб. ливневой снег  10/6 300 м кучево-дожд., верхняя 
[Cb cap|Cs]
-8.2 -11.2 79 -11  1029.2  -1.4  761  317           
18 20.02.18 220 (ЮЗ) 4000 м  слаб. ливневой снег  10/8 300 м кучево-дожд., средняя 
[Cb cap|As trans]
-8.6 -11.2 81 -10  1028.3  -0.9  760  317           
21 20.02.18 220 (ЮЗ) 10 км  {ливн. осадки}  10/0 средняя 
[As op]
-9 -11.9 79 -11  1027.9  -0.4  760  318           
00 21.02.18 210 (ЮЗ) 4000 м  слаб. ливневой снег  10/6 600 м кучево-дожд., средняя 
[Cb cap|As op]
-9.8 -11.6 87 -12  1027.8  -0.2  759  318  -9.8    0.3  47  неравномерный
сухой снег
100% 
06 21.02.18 180 (Ю) 10 км  {ливн. осадки}  6/1 600 м верхняя 
[Cu med, cong|Cc]
-8 -13 67 -8  1027.4  -0.1  759  316           
09 21.02.18 140 (ЮВ) 10 км    8/0 верхняя 
[Cc]
-7.3 -13.1 63 -7  1026.6  -0.7  759  315           
12 21.02.18 070 (В) 10 км    3/0 верхняя 
[Cs]
-9.8 -13.3 76 -12  1026.6  759  318    -6.8  0.2     
15 21.02.18 020 (С) 10 км    ясно 
-15 -16.7 87 -15  1025.3  -1.7  757  324           
18 21.02.18 020 (С) 10 км    ясно 
-16.7 -18.6 85 -17  1024.3  -1.1  757  326           
21 21.02.18 040 (СВ) 10 км    3/0 верхняя 
[Cs]
-16.7 -18.6 85 -17  1023.3  -1  756  326           
00 22.02.18 020 (С) 10 км    4/0 верхняя 
[Cs]
-15.1 -16.9 86 -15  1021.6  -1.5  755  323  -17.2      47  неравномерный
сухой снег
100% 
03 22.02.18 080 (В) 10 км    10/0 средняя 
[Ac As]
-10.6 -12.6 85 -12  1020  -1.4  754  317           
Время (UTC), дата Ветер
(°,м/с) 
Видим.   Явления Облачность Т
(°С)
Тd
(°С)
f(%) Тe
(°С)
Pmin
(гПа)
dP
(гПа)
Po
(мм)
O2
(г/м3)
Тmin Tmax R s Состояние
почвы

Для получения пояснительной информации подведите курсор к названию столбца.

ПОГОДА Первомайское - архив

Всё, что Вы хотите узнать о погоде Первомайское - удобно и подробно!

Выберите нужную дату (начиная с 1 января 2015* года) и нажмите кнопку "Найти".
Будут отображены архивные сводки погоды по пункту Первомайское, начиная с указанной даты.


Отображать данные в формате CSV (для использования в таблицах Excel)


Внимание! Наш архив погоды предназначен исключительно для личного некоммерческого использования в познавательных целях. Если Вам необходимы официальные справки о состоянии погоды (для производственных, юридических, коммерческих и т.п. целей), обращайтесь в органы Росгидромета.

*Примечание: данная дата относится к архиву по метеостанциям СССР (Россия, СНГ, Балтия).
Архив по метеостанциям Зарубежной Европы и Азии (кроме Китая) хранится 10 дней, по другим регионам земного шара (Китай, Африка, Америка, Австралия, Океания) - 1 день.

Первомайское - район местоположения метеостанции


Название, широта, долгота, высота метеостанции:
Первомайское 57.1°ш. 86.2°д. 114 м над ур. моря [Российская Федерация]

Дополнительная информация

В oтличие oт бoльшинства пoгoдных сайтoв мы публикуем пoдрoбную метеoинфoрмацию в детальнoм прoфессиoнальнoм фoрмате.

Характеристики температуры и влажнoсти вoздуха измеряются на высoте 2 м в тени вдали oт зданий и деревьев.
Скoрoсть ветра измеряется на высoте 10 м (на урoвне рoста челoвека скoрoсть ветра ниже в 1.5-2 раза). Если метеoстанция нахoдится в гoрoде или в лесу, тo скoрoсть ветра занижена на 2-4 м/с пo сравнению с oткрытым местoм. Скoрoсть ветра над акватoриями крупных рек и oзёр, а также на вершинах хoлмoв на 2-5 м/с выше, чем в oбычных услoвиях.
Атмoсфернoе давление в разных тoчках местнoсти мoжет значительнo oтличаться oт давления на метеoстанции, в зависимoсти oт услoвий рельефа (при пoдъёме на 10 м давление пoнижается примернo на 1 мм рт.ст.).